When you browse on this site, cookies collect data to enhance your experience and personalize the content and advertising you see.
Visit our Privacy Policy to learn more. By continuing to use the site, you agree to this use of cookies and data.
  • En España
  • Lista de países
  • Para 7 días
  • Temperatura del agua
  • El tiempo en el mapa
  • Informadores
  • user-avatar
    Iniciar sesión

    Tiempo cada hora l'Hospitalet de Llobregat

    Hoy, 28 Enero, Martes

    Tiempo Temperatura Precipitaciones Viento Presión Humedad
    00:00 +9°C° 0 mm 5 mps 755 mmHg 71%
    01:00 +9°C° 0 mm 6 mps 755 mmHg 73%
    02:00 +8°C° 0 mm 6 mps 755 mmHg 75%
    03:00 +8°C° 0 mm 6 mps 754 mmHg 77%
    04:00 +8°C° 0 mm 6 mps 754 mmHg 77%
    05:00 +8°C° 0 mm 6 mps 754 mmHg 78%
    06:00 +8°C° 0 mm 6 mps 754 mmHg 79%
    07:00 +9°C° 0 mm 6 mps 755 mmHg 77%
    08:00 +10°C° 0 mm 6 mps 755 mmHg 74%
    09:00 +10°C° 0 mm 6 mps 755 mmHg 72%
    10:00 +13°C° 0 mm 6 mps 755 mmHg 66%
    11:00 +14°C° 0 mm 6 mps 756 mmHg 59%
    12:00 +16°C° 0 mm 6 mps 756 mmHg 53%
    13:00 +16°C° 0 mm 7 mps 755 mmHg 51%
    14:00 +16°C° 0 mm 7 mps 755 mmHg 49%
    15:00 +17°C° 0 mm 7 mps 755 mmHg 47%
    16:00 +16°C° 0 mm 6 mps 755 mmHg 53%
    17:00 +14°C° 0 mm 5 mps 755 mmHg 59%
    18:00 +13°C° 0 mm 4 mps 756 mmHg 65%
    19:00 +13°C° 0 mm 4 mps 756 mmHg 68%
    20:00 +12°C° 0 mm 3 mps 756 mmHg 71%
    21:00 +13°C° 0 mm 2 mps 757 mmHg 73%
    22:00 +12°C° 0 mm 2 mps 757 mmHg 75%
    23:00 +12°C° 0 mm 2 mps 757 mmHg 77%

    Mañana, 29 Enero, Miércoles

    Tiempo Temperatura Precipitaciones Viento Presión Humedad
    00:00 +10°C° 0 mm 2 mps 757 mmHg 78%
    01:00 +10°C° 0 mm 2 mps 757 mmHg 78%
    02:00 +10°C° 0 mm 2 mps 757 mmHg 78%
    03:00 +9°C° 0 mm 2 mps 757 mmHg 78%
    04:00 +9°C° 0 mm 2 mps 757 mmHg 78%
    05:00 +9°C° 0 mm 2 mps 757 mmHg 78%
    06:00 +9°C° 0 mm 2 mps 757 mmHg 78%
    07:00 +9°C° 0 mm 2 mps 757 mmHg 75%
    08:00 +11°C° 0 mm 1 mps 758 mmHg 73%
    09:00 +11°C° 0 mm 1 mps 758 mmHg 70%
    10:00 +13°C° 0 mm 1 mps 758 mmHg 68%
    11:00 +14°C° 0 mm 1 mps 758 mmHg 65%
    12:00 +15°C° 0 mm 1 mps 758 mmHg 62%
    13:00 +15°C° 0 mm 1 mps 757 mmHg 62%
    14:00 +15°C° 0 mm 1 mps 757 mmHg 62%
    15:00 +16°C° 0 mm 1 mps 757 mmHg 62%
    16:00 +15°C° 0 mm 1 mps 757 mmHg 66%
    17:00 +14°C° 0 mm 1 mps 757 mmHg 70%
    18:00 +13°C° 0 mm 1 mps 758 mmHg 74%
    19:00 +13°C° 0 mm 1 mps 758 mmHg 75%
    20:00 +13°C° 0 mm 1 mps 758 mmHg 77%
    21:00 +12°C° 0 mm 1 mps 758 mmHg 78%
    22:00 +12°C° 0 mm 1 mps 758 mmHg 79%
    23:00 +12°C° 0 mm 1 mps 757 mmHg 79%

    Pasado mañana, 30 Enero, Jueves

    Tiempo Temperatura Precipitaciones Viento Presión Humedad
    00:00 +12°C° 0 mm 1 mps 757 mmHg 79%
    01:00 +12°C° 0 mm 2 mps 757 mmHg 80%
    02:00 +12°C° 0 mm 2 mps 757 mmHg 81%
    03:00 +12°C° 0 mm 2 mps 757 mmHg 82%
    04:00 +12°C° 0 mm 2 mps 756 mmHg 82%
    05:00 +11°C° 0 mm 3 mps 756 mmHg 83%
    06:00 +10°C° 0 mm 3 mps 756 mmHg 84%
    07:00 +11°C° 0 mm 3 mps 756 mmHg 81%
    08:00 +12°C° 0 mm 3 mps 756 mmHg 78%
    09:00 +12°C° 0 mm 3 mps 757 mmHg 75%
    10:00 +13°C° 0 mm 3 mps 757 mmHg 72%
    11:00 +14°C° 0 mm 4 mps 757 mmHg 69%
    12:00 +15°C° 0 mm 4 mps 757 mmHg 66%
    13:00 +17°C° 0 mm 4 mps 756 mmHg 65%
    14:00 +17°C° 0 mm 4 mps 756 mmHg 64%
    15:00 +17°C° 0 mm 3 mps 756 mmHg 63%
    16:00 +17°C° 0 mm 3 mps 756 mmHg 66%
    17:00 +16°C° 0 mm 2 mps 756 mmHg 70%
    18:00 +15°C° 0 mm 2 mps 756 mmHg 73%
    19:00 +15°C° 0 mm 1 mps 757 mmHg 74%
    20:00 +14°C° 0 mm 1 mps 757 mmHg 76%
    21:00 +14°C° 0 mm 1 mps 757 mmHg 77%
    22:00 +13°C° 0 mm 1 mps 757 mmHg 77%
    23:00 +13°C° 0 mm 1 mps 757 mmHg 78%

    31 Enero, Viernes

    Tiempo Temperatura Precipitaciones Viento Presión Humedad
    00:00 +13°C° 0 mm 1 mps 757 mmHg 78%
    01:00 +12°C° 0 mm 1 mps 757 mmHg 77%
    02:00 +12°C° 0 mm 2 mps 757 mmHg 76%
    03:00 +12°C° 0 mm 2 mps 757 mmHg 75%
    04:00 +12°C° 0 mm 2 mps 757 mmHg 75%
    05:00 +12°C° 0 mm 2 mps 757 mmHg 75%
    06:00 +12°C° 0 mm 2 mps 757 mmHg 75%
    07:00 +13°C° 0 mm 2 mps 758 mmHg 72%
    08:00 +13°C° 0 mm 2 mps 758 mmHg 70%
    09:00 +14°C° 0 mm 2 mps 758 mmHg 68%
    10:00 +15°C° 0 mm 1 mps 758 mmHg 63%
    11:00 +18°C° 0 mm 1 mps 758 mmHg 59%
    12:00 +19°C° 0 mm 1 mps 758 mmHg 54%
    13:00 +19°C° 0 mm 1 mps 758 mmHg 54%
    14:00 +19°C° 0 mm 1 mps 757 mmHg 54%
    15:00 +20°C° 0 mm 1 mps 757 mmHg 55%
    16:00 +19°C° 0 mm 1 mps 757 mmHg 59%
    17:00 +16°C° 0 mm 1 mps 757 mmHg 63%
    18:00 +15°C° 0 mm 1 mps 757 mmHg 67%
    19:00 +15°C° 0 mm 1 mps 758 mmHg 69%
    20:00 +15°C° 0 mm 2 mps 758 mmHg 71%
    21:00 +14°C° 0 mm 2 mps 758 mmHg 73%
    22:00 +14°C° 0 mm 2 mps 758 mmHg 74%
    23:00 +14°C° 0 mm 2 mps 757 mmHg 75%

    1 Febrero, Sábado

    Tiempo Temperatura Precipitaciones Viento Presión Humedad
    00:00 +13°C° 0 mm 2 mps 757 mmHg 76%
    01:00 +13°C° 0 mm 2 mps 757 mmHg 76%
    02:00 +13°C° 0 mm 2 mps 757 mmHg 77%
    03:00 +14°C° 0 mm 2 mps 756 mmHg 77%
    04:00 +14°C° 0 mm 2 mps 757 mmHg 77%
    05:00 +14°C° 0 mm 2 mps 757 mmHg 76%
    06:00 +14°C° 0 mm 2 mps 757 mmHg 76%
    07:00 +14°C° 0 mm 2 mps 757 mmHg 74%
    08:00 +14°C° 0 mm 2 mps 758 mmHg 72%
    09:00 +15°C° 0 mm 2 mps 758 mmHg 70%
    10:00 +16°C° 0 mm 2 mps 758 mmHg 64%
    11:00 +19°C° 0 mm 1 mps 759 mmHg 58%
    12:00 +20°C° 0 mm 1 mps 759 mmHg 53%
    13:00 +20°C° 0 mm 1 mps 759 mmHg 52%
    14:00 +21°C° 0 mm 1 mps 758 mmHg 51%
    15:00 +21°C° 0 mm 1 mps 758 mmHg 50%
    16:00 +20°C° 0 mm 1 mps 759 mmHg 54%
    17:00 +19°C° 0 mm 1 mps 759 mmHg 58%
    18:00 +18°C° 0 mm 1 mps 759 mmHg 61%
    19:00 +18°C° 0 mm 1 mps 759 mmHg 63%
    20:00 +16°C° 0 mm 1 mps 760 mmHg 65%
    21:00 +16°C° 0 mm 1 mps 760 mmHg 68%
    22:00 +16°C° 0 mm 1 mps 760 mmHg 70%
    23:00 +15°C° 0 mm 2 mps 760 mmHg 72%

    2 Febrero, Domingo

    Tiempo Temperatura Precipitaciones Viento Presión Humedad
    00:00 +15°C° 0 mm 2 mps 760 mmHg 74%
    01:00 +15°C° 0 mm 2 mps 760 mmHg 75%
    02:00 +14°C° 0 mm 2 mps 760 mmHg 76%
    03:00 +13°C° 0 mm 3 mps 760 mmHg 77%
    04:00 +13°C° 0 mm 3 mps 760 mmHg 77%
    05:00 +14°C° 0 mm 2 mps 760 mmHg 77%
    06:00 +14°C° 0 mm 2 mps 760 mmHg 77%
    07:00 +13°C° 0 mm 3 mps 760 mmHg 75%
    08:00 +14°C° 0 mm 3 mps 760 mmHg 73%
    09:00 +14°C° 0 mm 3 mps 760 mmHg 71%
    10:00 +17°C° 0 mm 3 mps 760 mmHg 66%
    11:00 +19°C° 0 mm 3 mps 760 mmHg 61%
    12:00 +20°C° 0 mm 3 mps 760 mmHg 57%
    13:00 +21°C° 0 mm 4 mps 760 mmHg 55%
    14:00 +21°C° 0 mm 4 mps 760 mmHg 54%
    15:00 +21°C° 0 mm 5 mps 759 mmHg 52%
    16:00 +20°C° 0 mm 4 mps 760 mmHg 57%
    17:00 +19°C° 0 mm 4 mps 760 mmHg 61%
    18:00 +18°C° 0 mm 4 mps 760 mmHg 66%
    19:00 +17°C° 0 mm 4 mps 760 mmHg 68%
    20:00 +17°C° 0 mm 4 mps 760 mmHg 70%
    21:00 +16°C° 0 mm 3 mps 760 mmHg 72%
    22:00 +16°C° 0 mm 3 mps 760 mmHg 73%
    23:00 +16°C° 0 mm 3 mps 760 mmHg 73%
    Mostrar más